Location: Bittkow
(50.3000°N, 19.0000°E)
Time: 05:22:13
(UTC+00:00)

USA 308 - Pass Details

Date: 19 September 2020
Orbit: 569 x 581 km, 54.0° (Epoch: 19 October)

Event Time Altitude Azimuth Distance (km) Brightness Sun altitude
Exits shadow 02:55:26 27° 244° (WSW) 1,117 3.8 -14.9°
Maximum altitude 02:57:43 89° 151° (SSE) 575 2.8 -14.6°
Drops below altitude 10° 03:02:00 10° 66° (ENE) 1,876 7.0 -14.0°
Sets 03:04:15 0° 67° (ENE) 2,776 8.4 -13.6°
